Weather in Zhilino

Russia / Perm Krai     57°28′14″N   56°47′17″E
temp.,
°C
wind,
m/s
gust,
m/s
humid.,
%
clouds,
%
prec.,
mm/h
press.,
hPa
HPBL,
m
28 february, sun
sun2823:00−17e61193100 0.8 1009519
02:00−16e51095100 0.4 1008459
05:00−16e61194100 0.8 1008467
08:00−16ene61192100 0.1 1007467
11:00−15ene61093100 0.5 1008572
14:00−13ene6991100 0.3 1008600
17:00−12ene6892100 0.6 1009608
20:00−14ene5994100 0.3 1011436
1 march, mon
mon123:00−16ene499499 0.5 1013365
02:00−17ne489699 0.1 1014299
05:00−17ne369798 0.3 1016153
08:00−19ne359791 0.1 1017125
11:00−17ne349286 0.1 1018297
14:00−14ene228597 0.0 1017398
17:00−13ene118599 0.0 1017313
20:00−18ssw229538 0.0 101720
2 march, tue
tue223:00−19sw239719 0.0 101620
02:00−20ssw349960 0.0 101533
05:00−20s479955 0.0 1013136
08:00−19s6129499 0.0 1010350
11:00−17s7119299 0.0 1008407
14:00−13s71194100 0.4 1006502
17:00−12ssw71194100 1.1 1004570
20:00−13ssw61194100 0.9 1002598
3 march, wed
wed323:00−12s51094100 1.5 1002547
02:00−12s4995100 0.6 1000439
05:00−12sse4895100 1.1 1000297
08:00−12sse3596100 0.6 998248
11:00−10s2290100 1.0 998285
14:00−7sw0187100 0.1 997351
17:00−6nw1287100 0.2 998387
20:00−9wnw1297100 0.1 99821
4 march, thu
thu423:00−8nw369699 0.4 1000176
02:00−12nw479491 0.0 1001138
05:00−13wnw459678 0.0 100290
08:00−15wnw359640 0.0 100388
11:00−9wnw478948 0.0 1004459
14:00−7w568492 0.0 1004782
17:00−7wsw588596 0.1 1003727
20:00−9ssw5129199 0.0 1002518